Regional Weather Roundup
Issued by NWS Wilmington, NC

Current Version | Previous Version | Text Only | Print | Product List | Glossary On
Versions: 1 2 3 4 5 6 7 8 9 10 11 12 13 14 15 16 17 18 19 20 21 22 23 24 25 26 27 28 29 30 31 32 33 34 35 36 37 38 39 40 41 42 43 44 45 46 47 48 49 50
000
ASUS42 KILM 311910
RWRILM
RWRILM
REGIONAL HOURLY WEATHER ROUNDUP
NATIONAL WEATHER SERVICE WILMINGTON NC
300 PM EDT THU JUL 31 2014

NOTE: "FAIR" INDICATES FEW OR NO CLOUDS BELOW 12,000 FEET WITH NO
SIGNIFICANT WEATHER AND/OR OBSTRUCTIONS TO VISIBILITY.

...............WFO WILMINGTON COUNTY WARNING AREA...............

......COASTAL NC AND SC COUNTIES......

CITY           SKY/WX    TMP DP  RH WIND       PRES   REMARKS
WILMINGTON     PTSUNNY   84  68  58 E16       30.11S
SOUTHPORT      PTSUNNY   83  70  65 E10G16    30.11R
N MYRTLE BEACH CLOUDY    83  69  62 E12       30.08F
MYRTLE BEACH   MOSUNNY   82  72  69 E14       30.08S

......INLAND NC AND SC COUNTIES.......

CITY           SKY/WX    TMP DP  RH WIND       PRES   REMARKS
LUMBERTON      CLOUDY    87  65  47 E9        30.09S
ELIZABETHTOWN  PTSUNNY   85  64  49 E6        30.10S
WHITEVILLE     CLOUDY    84  66  54 E8        30.09S
FLORENCE       CLOUDY    85  67  54 E13       30.07F
DARLINGTON     CLOUDY    86  66  51 E8        30.09F

....................REST OF NORTH CAROLINA......................

.........EASTERN NC.........

CITY           SKY/WX    TMP DP  RH WIND       PRES   REMARKS
CAPE HATTERAS  NOT AVBL
JACKSONVILLE   PTSUNNY   84  66  54 SE5       30.12S
MOREHEAD CITY  MOSUNNY   85  66  53 E10       30.12F
KENANSVILLE    PTSUNNY   84  62  47 SE6       30.12F
NEW BERN       PTSUNNY   85  64  49 E9        30.13F
ELIZABETH CITY MOSUNNY   82  63  52 SE6       30.14S

.........CENTRAL NC.........

CITY           SKY/WX    TMP DP  RH WIND       PRES   REMARKS
RALEIGH DURHAM CLOUDY    80  65  59 SE7       30.14S
ROCKY MOUNT    PTSUNNY   83  66  56 E6        30.13F
ROANOKE RAPIDS NOT AVBL
FAYETTEVILLE   CLOUDY    87  62  43 E10       30.09F
HOFFMAN        PTSUNNY   85  62  46 SE13      30.11F

.........WESTERN NC.........

CITY           SKY/WX    TMP DP  RH WIND       PRES   REMARKS
CHARLOTTE      LGT RAIN  77  68  73 N9        30.13S
GREENSBORO     CLOUDY    73  67  81 NW6       30.14S THUNDER
HICKORY        NOT AVBL
BOONE          NOT AVBL
ASHEVILLE      NOT AVBL

.....................REST OF SOUTH CAROLINA.....................

.........EASTERN SC.........

CITY           SKY/WX    TMP DP  RH WIND       PRES   REMARKS
CHARLESTON     TSTM      76  73  91 W10       30.04S FOG
BEAUFORT MCAS  PTSUNNY   79  73  82 E12G18    30.02F
HILTON HEAD    NOT AVBL

.........CENTRAL SC.........

CITY           SKY/WX    TMP DP  RH WIND       PRES   REMARKS
COLUMBIA       LGT RAIN  83  70  64 SE10      30.06S
ORANGEBURG     CLOUDY    77  68  73 S13G22    30.07S
SUMTER SHAW    CLOUDY    83  72  69 E9        30.05F

.........WESTERN SC.........

CITY           SKY/WX    TMP DP  RH WIND       PRES   REMARKS
GREENVILLE     NOT AVBL
ROCK HILL      CLOUDY    80  69  69 N7        30.12S
ANDERSON       LGT RAIN  67  65  93 VRB6      30.13S
CLEMSON        NOT AVBL
GREENWOOD      CLOUDY    75  68  78 N14G22    30.11F


...................COASTAL AND OFFSHORE REPORTS..................

................LOCAL PIERS AND NC RESERVE................


STATION/POSITION TIME  SKY/WX   TEMP    WIND        PRES    VSBY
                                AIR SEA DIR/SP/G
                 (UTC)          (F)     (DEG/KT/KT) (MB)    (MI)
JOHNY MRCER PIER 1900            81 84   80/ 15/ 16 1019.0F
NC RESRV MASNBRO 1800            84      70/  5     1019.0S
OCEAN CREST PIER 1900            82 84   90/ 15/ 18 1018.1F
SPRINGMAID  PIER 1900            82 83   70/ 19/ 20 1018.6S


................COASTAL AND OFFSHORE BUOYS................


STATION/POSITION TIME  SKY/WX   TEMP    WIND        PRES    VSBY
                                AIR SEA DIR/SP/G
                 (UTC)          (F)     (DEG/KT/KT) (MB)    (MI)
DIMNDSHOAL 41025 1800                   VRB 12/ 14  1020.1F
WVE H/P(F/S)=  3/ 7 WND WVE H/P(F/S)=  2/ 5 SWL H/P/D(F/S/D)=  3/120/ 7

CAPE LOOKOUT     1800            80      70/ 11/ 13 1020.2R
ONSLOW BAY 41036 1900            81 81   80/ 14/ 16 1019.9S
WVE H/P(F/S)=  4/ 7 WND WVE H/P(F/S)=  3/ 5 SWL H/P/D(F/S/D)=  2/110/ 7

5 WRITEBCH 41038 1800            78 81   80/ 14/ 16   N/A
MASONBORO  41110 1900               81                N/A
WVE H/P(F/S)=  4/ 7 WND WVE H/P(F/S)=  3/ 7

WILM HARBR 41108 NOT AVBL
27WRITEBCH 41037 NOT AVBL
FRYING PAN 41013 NOT AVBL
SUNST NRSH 41024 1800            84     100/ 14/ 16 1018.8R
CAPRS NRSH 41029 1800            83     100/ 17/ 21   N/A
EDISTO     41004 1900            78 83  100/ 17/ 21 1016.4R
WVE H/P(F/S)=  4/ 4 WND WVE H/P(F/S)=  3/ 4 SWL H/P/D(F/S/D)=  2/ 8



..........OFFSHORE BUOYS BEYOND 100 NM OFFSHORE...........
.....IN A TRIANGLE---HAT TO BERMUDA TO BAHAMAS TO HAT.....


STATION/POSITION TIME  SKY/WX   TEMP    WIND        PRES    VSBY
                                AIR SEA DIR/SP/G
                 (UTC)          (F)     (DEG/KT/KT) (MB)    (MI)
150E HAT   41001 NOT AVBL
W BERMUDA  41048 1844            82 82  160/ 12/ 16 1020.6F
WVE H/P(F/S)=  4/ 7 WND WVE H/P(F/S)=  3/ 6 SWL H/P/D(F/S/D)=  3/170/ 7

ATLANTIC S 41049 1849            82 84   70/  8/ 12 1020.3F
WVE H/P(F/S)=  3/ 6 WND WVE H/P(F/S)=  2/ 3 SWL H/P/D(F/S/D)=  3/100/ 6

E BAHAMAS  41046 1834            81 84  110/ 14/ 16 1017.0F
WVE H/P(F/S)=  5/ 7 WND WVE H/P(F/S)=  3/ 4 SWL H/P/D(F/S/D)=  3/110/ 7

NE BAHAMAS 41047 1841            83 85  130/ 16/ 17 1018.5F
WVE H/P(F/S)=  4/ 6 WND WVE H/P(F/S)=  3/ 6 SWL H/P/D(F/S/D)=  2/190/14

120E CANVRL41010 1900            83 84  160/  8/ 10 1016.6F
WVE H/P(F/S)=  3/ 8 WND WVE H/P(F/S)=  2/ 4 SWL H/P/D(F/S/D)=  2/ 90/ 8


END


USA.gov is the U.S. government's official web portal to all federal, state and local government web resources and services.